[[{"header":{"parameterUnit":"m.s-1","parameterCategory":1,"la1":30.2991,"la2":30.254,"lo1":-89.0895,"lo2":-89.0444,"dy":0.0017,"dx":0.0017,"nx":28,"ny":28,"refTime":"2025-12-11T09:00:00:Z","depth":0,"parameterNumber":2,"parameterNumberName":"U-component_of_WINDS"},"data":[0,0,0,0,0,0,0,0,0,0,0,0,0,0,0,0,0,0,0,0,0,0,0,0,0,0,0,0,0,0,0,0,0,0,0,0,0,0,0,0,0,0,0,0,0,0,0,0,0,0,0,0,0,0,0,0,0,0,0.666,0.6661,0,0.6839,0.6841,0.6843,0.6885,0.6884,0.6883,0.6881,0.7067,0.7073,0.7079,0,0,0,0,0,0,0,0,0,0,0,0,0,0.6355,0.636,0.6659,0.6662,0.6664,0.6839,0.6842,0.6844,0.6885,0.6884,0.6882,0.6881,0.7065,0.7073,0.708,0,0,0,0,0,0,0,0,0,0,0,0,0,0.6506,0.6362,0.6659,0.6705,0.6711,0.6839,0.6842,0.6845,0.6886,0.6884,0.6882,0.688,0.7063,0.7072,0.7081,0.7175,0,0,0.7109,0.7113,0,0,0,0,0,0,0,0,0.6497,0.6517,0.6696,0.6703,0.6709,0.6838,0.6802,0.6955,0.6886,0.682,0.6881,0.6879,0.6993,0.7007,0.7045,0.7184,0.7192,0.711,0.7115,0.7119,0.7122,0,0,0,0,0,0,0,0.6487,0.651,0.6731,0.6699,0.6707,0.6719,0.6738,0.6832,0.6914,0.6825,0.6829,0.6849,0.6996,0.7036,0.705,0.7194,0.711,0.7118,0.7123,0.7127,0.7422,0.7424,0,0,0,0,0,0,0.6468,0.6501,0.6725,0.6736,0.6597,0.6725,0.6747,0.6799,0.6913,0.6929,0.6851,0.685,0.7022,0.7039,0.7057,0.7176,0.7119,0.7128,0.7133,0.7419,0.7422,0.7425,0,0,0,0,0,0,0.6461,0.6488,0.6718,0.6619,0.665,0.6733,0.679,0.6803,0.6844,0.6933,0.6948,0.6877,0.7021,0.7044,0.7146,0.7183,0.7132,0.714,0.7417,0.742,0.7424,0.7414,0,0,0,0,0,0,0.6452,0.6485,0.652,0.662,0.6655,0.6802,0.6792,0.6808,0.6859,0.6861,0.6961,0.6976,0.7021,0.7132,0.7155,0.7195,0.7147,0.7414,0.7418,0.7422,0.7411,0.7417,0.7421,0,0,0,0,0,0.6441,0.651,0.6522,0.6549,0.6701,0.6804,0.6824,0.6874,0.6862,0.6899,0.6957,0.6973,0.7175,0.7142,0.7168,0.7211,0.7412,0.7417,0.7422,0.7409,0.7416,0.7421,0,0,0,0,0,0,0.6413,0.6524,0.6538,0.6641,0.6713,0.6811,0.6859,0.6879,0.6957,0.6955,0.7014,0.7037,0.7135,0.7184,0.7145,0.731,0.7293,0.7304,0.7274,0.7281,0.7286,0.7272,0.7155,0,0,0,0,0,0.6419,0.6493,0.6586,0.6669,0.6704,0.6775,0.6822,0.6855,0.6932,0.6963,0.7028,0.7102,0.7183,0.7235,0.7314,0.7419,0.7442,0.7462,0.7467,0.747,0.7479,0.754,0.755,0.7442,0.7442,0.7442,0,0,0.6432,0.6501,0.6545,0.6665,0.6724,0.6801,0.6801,0.6881,0.6939,0.6975,0.7075,0.7126,0.7214,0.7318,0.7367,0.7361,0.7514,0.7477,0.7479,0.7486,0.7546,0.7557,0.7566,0.7446,0.7445,0.7444,0,0,0.6494,0.6554,0.6629,0.6689,0.678,0.6827,0.6845,0.6941,0.6976,0.7078,0.7107,0.7177,0.7314,0.7376,0.7426,0.7514,0.7533,0.7538,0.7564,0.7623,0.7632,0.764,0.7672,0.7683,0.7547,0.7547,0.7547,0,0.6498,0.6614,0.6666,0.6746,0.6799,0.6835,0.6913,0.6969,0.708,0.7117,0.7109,0.7283,0.7344,0.7465,0.7486,0.7525,0.7549,0.7527,0.7626,0.7635,0.7643,0.7675,0.7687,0.7547,0.7547,0.7547,0.7547,0,0.6616,0.6696,0.6747,0.6853,0.6912,0.6991,0.7056,0.7109,0.7137,0.7186,0.729,0.7366,0.7462,0.7493,0.752,0.7618,0.7612,0.7614,0.7599,0.7652,0.7683,0.7696,0.7547,0.7547,0.7547,0.7547,0,0,0.6664,0.68,0.6818,0.6868,0.6971,0.7034,0.7116,0.7209,0.7255,0.7331,0.7401,0.7518,0.7522,0.7578,0.7613,0.7665,0.7732,0.7662,0.7665,0.7673,0.7846,0.7843,0.7857,0.7745,0.7748,0.775,0.7839,0,0.674,0.6885,0.6935,0.7056,0.7132,0.7169,0.724,0.7311,0.736,0.7432,0.7486,0.7568,0.7566,0.7601,0.7653,0.7713,0.7768,0.7707,0.7813,0.7816,0.779,0.7873,0.787,0.795,0.7851,0.7853,0.7855,0,0.6847,0.6925,0.7053,0.7149,0.7182,0.7245,0.7336,0.7404,0.7488,0.7519,0.7583,0.7616,0.7704,0.7683,0.7807,0.7764,0.7811,0.7847,0.7851,0.7863,0.7838,0.7888,0.7977,0.7989,0.7874,0.7873,0.7871,0,0.687,0.7008,0.7103,0.7144,0.7258,0.7301,0.7351,0.7432,0.7486,0.7566,0.7602,0.7691,0.774,0.7809,0.7866,0.7845,0.7985,0.7969,0.8015,0.8013,0.8042,0.804,0.8141,0.8071,0.8071,0.8071,0.8071,0,0.695,0.7027,0.7115,0.7173,0.7262,0.732,0.7406,0.7458,0.753,0.7601,0.7638,0.7704,0.7774,0.7849,0.7894,0.7991,0.8012,0.8042,0.8053,0.8038,0.8035,0.807,0.8066,0.8074,0.8073,0.8073,0.8072,0,0.6991,0.7052,0.7159,0.7258,0.7285,0.7346,0.7432,0.7491,0.7541,0.763,0.7654,0.7734,0.7825,0.7888,0.8005,0.8035,0.814,0.815,0.8111,0.8117,0.816,0.8155,0.8287,0.8308,0.8224,0.8225,0.8225,0,0.7037,0.7098,0.7204,0.7253,0.7303,0.7382,0.7438,0.7498,0.7554,0.7655,0.7702,0.7795,0.7873,0.8017,0.8086,0.8176,0.8189,0.8229,0.8203,0.8187,0.8191,0.8187,0.8194,0.8233,0.8234,0.8234,0.8235,0,0.7114,0.7142,0.722,0.7309,0.7374,0.7448,0.7521,0.756,0.7634,0.7696,0.7789,0.7849,0.7969,0.8061,0.8158,0.8211,0.8236,0.8243,0.8258,0.8245,0.822,0.8235,0.8123,0.8239,0.8239,0.8238,0.8238,0.8238,0.716,0.7216,0.73,0.7386,0.7448,0.7517,0.7578,0.7636,0.7715,0.7816,0.7848,0.7945,0.8029,0.8162,0.8216,0.8294,0.8291,0.8314,0.832,0.8324,0.8324,0.8207,0.8312,0.8312,0.8312,0.8312,0.8312,0,0.7239,0.7295,0.7374,0.7476,0.7545,0.7562,0.7645,0.7702,0.7786,0.7862,0.7939,0.8047,0.8137,0.8214,0.8309,0.8357,0.8371,0.8379,0.8377,0.8389,0.8321,0.8298,0.8367,0.8367,0.8367,0.8367,0.8367,0.8367,0.7288,0.7385,0.7423,0.7551,0.7608,0.7703,0.7749,0.7813,0.7875,0.7993,0.8069,0.8118,0.8196,0.8296,0.8381,0.8402,0.8435,0.8441,0.8465,0.84,0.8393,0.8387,0.8366,0.8448,0.8448,0.8526,0.8527,0.8528]},{"header":{"parameterUnit":"m.s-1","parameterCategory":1,"la1":30.2991,"la2":30.254,"lo1":-89.0895,"lo2":-89.0444,"dy":0.0017,"dx":0.0017,"nx":28,"ny":28,"refTime":"2025-12-11T09:00:00:Z","depth":0,"parameterNumber":3,"parameterNumberName":"V-component_of_WINDS"},"data":[0,0,0,0,0,0,0,0,0,0,0,0,0,0,0,0,0,0,0,0,0,0,0,0,0,0,0,0,0,0,0,0,0,0,0,0,0,0,0,0,0,0,0,0,0,0,0,0,0,0,0,0,0,0,0,0,0,0,-0.3534,-0.3532,0,-0.3371,-0.3369,-0.3367,-0.3336,-0.3337,-0.3339,-0.334,-0.316,-0.3154,-0.3149,0,0,0,0,0,0,0,0,0,0,0,0,0,-0.3808,-0.3803,-0.3534,-0.3532,-0.353,-0.3371,-0.3369,-0.3367,-0.3336,-0.3337,-0.3339,-0.3341,-0.3162,-0.3155,-0.3148,0,0,0,0,0,0,0,0,0,0,0,0,0,-0.3671,-0.3801,-0.3535,-0.3496,-0.3491,-0.3372,-0.3369,-0.3366,-0.3335,-0.3337,-0.334,-0.3341,-0.3165,-0.3156,-0.3147,-0.3051,0,0,-0.3119,-0.3115,0,0,0,0,0,0,0,0,-0.3679,-0.3661,-0.3504,-0.3498,-0.3493,-0.3376,-0.3399,-0.326,-0.3335,-0.3394,-0.334,-0.3342,-0.323,-0.3215,-0.318,-0.3042,-0.3035,-0.3118,-0.3113,-0.3109,-0.3107,0,0,0,0,0,0,0,-0.3688,-0.3667,-0.3469,-0.3501,-0.3495,-0.3483,-0.3466,-0.3373,-0.3302,-0.3389,-0.3387,-0.3368,-0.3227,-0.3189,-0.3175,-0.3032,-0.3119,-0.3111,-0.3105,-0.3102,-0.2805,-0.2802,0,0,0,0,0,0,-0.3706,-0.3676,-0.3474,-0.3464,-0.3593,-0.3476,-0.3457,-0.3411,-0.3303,-0.3289,-0.3367,-0.3367,-0.3203,-0.3186,-0.3169,-0.3048,-0.3109,-0.3101,-0.3096,-0.2807,-0.2804,-0.2802,0,0,0,0,0,0,-0.3712,-0.3689,-0.3481,-0.3569,-0.3542,-0.347,-0.3418,-0.3407,-0.3369,-0.3287,-0.3272,-0.3342,-0.3204,-0.3182,-0.3081,-0.3041,-0.3097,-0.3088,-0.281,-0.2806,-0.2803,-0.2806,0,0,0,0,0,0,-0.372,-0.3691,-0.3656,-0.3569,-0.3538,-0.3399,-0.3416,-0.3402,-0.3355,-0.3354,-0.3259,-0.3245,-0.3204,-0.3095,-0.3072,-0.303,-0.3081,-0.2813,-0.2808,-0.2804,-0.2809,-0.2802,-0.2797,0,0,0,0,0,-0.373,-0.3661,-0.3655,-0.3631,-0.3494,-0.3397,-0.3379,-0.3336,-0.3352,-0.3314,-0.3261,-0.3248,-0.305,-0.3084,-0.3059,-0.3013,-0.2815,-0.281,-0.2804,-0.2811,-0.2804,-0.2797,0,0,0,0,0,0,-0.3742,-0.3649,-0.3641,-0.3543,-0.3479,-0.3392,-0.3344,-0.333,-0.3256,-0.3258,-0.3205,-0.3184,-0.3085,-0.3039,-0.3079,-0.2913,-0.2933,-0.2922,-0.2947,-0.2939,-0.2934,-0.2945,-0.3074,0,0,0,0,0,-0.3734,-0.3667,-0.3588,-0.3509,-0.3478,-0.3417,-0.3373,-0.3346,-0.3276,-0.3247,-0.3186,-0.3115,-0.3036,-0.2985,-0.2909,-0.2803,-0.2779,-0.2758,-0.2753,-0.2748,-0.2738,-0.2676,-0.2665,-0.2783,-0.2783,-0.2784,0,0,-0.3714,-0.3656,-0.3616,-0.351,-0.3457,-0.3385,-0.3393,-0.3317,-0.3262,-0.3234,-0.3136,-0.3089,-0.3005,-0.2901,-0.2852,-0.2859,-0.2701,-0.2741,-0.2738,-0.2731,-0.2669,-0.2658,-0.2648,-0.278,-0.278,-0.2781,0,0,-0.3643,-0.3594,-0.3522,-0.3469,-0.3391,-0.3351,-0.3333,-0.3249,-0.3218,-0.312,-0.3097,-0.3028,-0.2895,-0.2836,-0.2788,-0.2696,-0.2679,-0.2672,-0.264,-0.2581,-0.2571,-0.2563,-0.2527,-0.2515,-0.2663,-0.2663,-0.2663,0,-0.3628,-0.3523,-0.3485,-0.341,-0.3363,-0.3339,-0.3263,-0.3212,-0.3111,-0.3076,-0.3088,-0.292,-0.2862,-0.2742,-0.272,-0.2683,-0.2658,-0.2681,-0.2577,-0.2567,-0.2559,-0.2524,-0.2511,-0.2662,-0.2662,-0.2662,-0.2662,0,-0.3507,-0.3435,-0.3385,-0.3293,-0.3239,-0.3164,-0.3111,-0.3061,-0.3039,-0.2997,-0.2895,-0.2826,-0.2734,-0.2704,-0.268,-0.258,-0.2587,-0.2588,-0.2606,-0.2548,-0.2514,-0.25,-0.2661,-0.2662,-0.2662,-0.2662,0,0,-0.3436,-0.3326,-0.3308,-0.3265,-0.3176,-0.3117,-0.304,-0.2954,-0.2911,-0.2842,-0.2773,-0.2661,-0.2662,-0.2608,-0.2577,-0.2525,-0.2453,-0.2532,-0.2529,-0.2517,-0.2335,-0.2333,-0.2319,-0.2443,-0.244,-0.2438,-0.2341,0,-0.3353,-0.3219,-0.3182,-0.3066,-0.2997,-0.2973,-0.2905,-0.2841,-0.28,-0.2731,-0.2684,-0.2605,-0.2613,-0.258,-0.2528,-0.2473,-0.2415,-0.248,-0.2374,-0.237,-0.2394,-0.2302,-0.2299,-0.2211,-0.2328,-0.2326,-0.2324,0,-0.3237,-0.317,-0.3048,-0.2969,-0.2938,-0.2878,-0.2796,-0.2733,-0.2658,-0.2631,-0.2573,-0.2547,-0.2461,-0.2486,-0.2365,-0.241,-0.2364,-0.2331,-0.2326,-0.2313,-0.2342,-0.2282,-0.2182,-0.2168,-0.2303,-0.2305,-0.2307,0,-0.3195,-0.3073,-0.2985,-0.2949,-0.2855,-0.2813,-0.277,-0.2699,-0.2649,-0.2576,-0.2543,-0.246,-0.2413,-0.2347,-0.2298,-0.2321,-0.218,-0.2202,-0.2151,-0.2152,-0.212,-0.2122,-0.2009,-0.2095,-0.2096,-0.2096,-0.2096,0,-0.3103,-0.3029,-0.2965,-0.291,-0.2825,-0.2783,-0.2699,-0.2655,-0.2591,-0.2524,-0.2498,-0.2435,-0.2375,-0.2303,-0.2264,-0.2168,-0.2147,-0.212,-0.211,-0.2121,-0.2124,-0.2088,-0.2092,-0.2092,-0.2093,-0.2094,-0.2094,0,-0.3041,-0.2995,-0.2897,-0.2817,-0.2795,-0.2735,-0.2664,-0.2608,-0.2567,-0.2482,-0.246,-0.2392,-0.2306,-0.2252,-0.2141,-0.2114,-0.2008,-0.2001,-0.2034,-0.2029,-0.1981,-0.1985,-0.1838,-0.1815,-0.192,-0.1919,-0.1918,0,-0.2984,-0.2928,-0.2842,-0.2798,-0.2757,-0.2685,-0.2635,-0.259,-0.2539,-0.2451,-0.2404,-0.2317,-0.2245,-0.2107,-0.2045,-0.196,-0.1949,-0.1903,-0.1935,-0.1948,-0.1945,-0.1948,-0.194,-0.1897,-0.1896,-0.1895,-0.1895,0,-0.2888,-0.2869,-0.2801,-0.2725,-0.2667,-0.2604,-0.254,-0.2504,-0.2447,-0.239,-0.2304,-0.2248,-0.2137,-0.2049,-0.1959,-0.191,-0.1891,-0.1886,-0.1869,-0.1878,-0.1899,-0.1885,-0.2017,-0.1889,-0.1889,-0.189,-0.189,-0.189,-0.2825,-0.2773,-0.2705,-0.263,-0.2578,-0.2519,-0.2463,-0.2415,-0.2344,-0.2253,-0.223,-0.2138,-0.2063,-0.194,-0.189,-0.1815,-0.1821,-0.1797,-0.1791,-0.1785,-0.1783,-0.1914,-0.1799,-0.1799,-0.1799,-0.1799,-0.1799,0,-0.2725,-0.2682,-0.2613,-0.2527,-0.2466,-0.246,-0.2388,-0.2337,-0.2259,-0.2193,-0.2124,-0.2023,-0.1938,-0.1871,-0.1782,-0.1735,-0.1724,-0.1713,-0.1714,-0.1703,-0.1784,-0.1807,-0.1723,-0.1723,-0.1723,-0.1723,-0.1723,-0.1723,-0.2667,-0.2578,-0.255,-0.2434,-0.2389,-0.2303,-0.2263,-0.2207,-0.2154,-0.2045,-0.1976,-0.1935,-0.1866,-0.1773,-0.1693,-0.1675,-0.1643,-0.1633,-0.1613,-0.1689,-0.1697,-0.1705,-0.1726,-0.1627,-0.1627,-0.1537,-0.1536,-0.1536]}]]